Location: Saint Peter Port
(49.4500°N, 2.5330°W)
Time: 05:58:43
(UTC+01:00)

Envisat - Visible Passes

Search period start: 20 April 2019 00:00
Search period end: 30 April 2019 00:00
Orbit: 764 x 766 km, 98.2° (Epoch: 19 April)

Date Brightness Start Highest point End Pass type
(mag) Time Alt. Az. Time Alt. Az. Time Alt. Az.
21 Apr 5.9 21:09:33 10° WSW 21:12:25 15° W 21:15:18 10° NW visible
24 Apr 5.7 20:57:33 10° SW 21:01:03 18° W 21:04:33 10° NW visible
26 Apr 6.2 21:25:41 10° W 21:26:57 11° W 21:28:14 10° WNW visible
29 Apr 5.9 21:13:01 10° WSW 21:15:33 14° W 21:18:06 10° NW visible
